Date String (YYYY-MM-DD hh:mm:ss) UTC,Instrument flags,Ambient pressure (hPa),Sample flow (lpm),Bypass flow (lpm),Sample temperature (°C),Ambient temperature (°C),ASC tube jacket temperature (°C),LED temperature (°C),Box temperature (°C),Sample RH (%),Span deviation,Mass concentration (μg/m³),Mass concentration (μg/m³),Mass concentration (μg/m³)
DateTimeUTC,F1_M11,P_M11,Q1_M11,Q2_M11,T1_M11,T2_M11,T3_M11,T4_M11,T5_M11,U1_M11,ZSPAN_M11,X2_M11,X0_M11,X1_M11
2022-02-06 09:00:00,,0829.8,4.99,0.00,22.1,21.4,00.0,31.2,23.9,09.4,0000.0,0002.66,0005.29,0002.22
2022-02-06 09:01:00,,0829.9,5.02,0.00,22.1,21.5,00.0,31.2,23.9,09.5,0000.0,0002.64,0005.36,0002.23
2022-02-06 09:02:00,,0829.9,5.00,0.00,22.1,21.5,00.0,31.2,23.9,09.5,0000.0,0002.59,0004.46,0002.22
2022-02-06 09:03:00,,0830.0,5.00,0.00,22.2,21.8,00.0,31.2,24.0,09.4,0000.0,0002.62,0004.01,0002.22
2022-02-06 09:04:00,,0830.0,5.00,0.00,22.3,22.5,00.0,31.2,24.2,09.3,0000.0,0002.63,0004.07,0002.21
2022-02-06 09:05:00,,0830.0,5.00,0.00,22.4,23.1,00.0,31.2,24.4,09.3,0000.0,0002.66,0004.17,0002.22
2022-02-06 09:06:00,,0830.0,4.99,0.00,22.5,23.1,00.0,31.3,24.5,09.4,0000.0,0002.69,0004.21,0002.23
2022-02-06 09:07:00,,0830.1,5.00,0.00,22.5,22.9,00.0,31.3,24.5,09.4,0000.0,0002.65,0004.08,0002.22
2022-02-06 09:08:00,,0830.1,5.00,0.00,22.6,22.7,00.0,31.3,24.5,09.4,0000.0,0002.62,0004.02,0002.19
2022-02-06 09:09:00,,0830.1,5.01,0.00,22.6,22.5,00.0,31.4,24.4,09.3,0000.0,0002.65,0004.16,0002.12
2022-02-06 09:10:00,,0830.0,5.01,0.00,22.6,22.4,00.0,31.4,24.4,09.3,0000.0,0002.61,0004.49,0002.06
2022-02-06 09:11:00,,0830.1,4.99,0.00,22.6,22.3,00.0,31.4,24.4,09.2,0000.0,0002.56,0005.54,0002.00
2022-02-06 09:12:00,,0830.0,4.99,0.00,22.6,22.2,00.0,31.4,24.4,09.2,0000.0,0002.48,0006.24,0001.95
2022-02-06 09:13:00,,0830.0,5.01,0.00,22.6,22.2,00.0,31.4,24.4,09.2,0000.0,0002.44,0006.41,0001.90
2022-02-06 09:14:00,,0830.1,4.98,0.00,22.6,22.1,00.0,31.4,24.4,09.2,0000.0,0002.41,0007.53,0001.86
2022-02-06 09:15:00,,0830.1,5.01,0.00,22.6,22.1,00.0,31.4,24.4,09.2,0000.0,0002.37,0008.25,0001.83
2022-02-06 09:16:00,,0830.1,5.00,0.00,22.6,22.0,00.0,31.4,24.4,09.2,0000.0,0002.33,0008.21,0001.79
2022-02-06 09:17:00,,0830.1,4.99,0.00,22.6,22.0,00.0,31.4,24.4,09.3,0000.0,0002.28,0008.61,0001.75
2022-02-06 09:18:00,,0830.1,5.00,0.00,22.6,22.0,00.0,31.5,24.4,09.7,0000.0,0002.31,0008.81,0001.72
2022-02-06 09:19:00,,0830.1,4.99,0.00,22.6,22.0,00.0,31.5,24.4,09.8,0000.0,0002.29,0008.81,0001.69
2022-02-06 09:20:00,,0830.1,5.01,0.00,22.6,21.9,00.0,31.5,24.3,09.8,0000.0,0002.15,0008.59,0001.68
2022-02-06 09:21:00,,0830.2,4.99,0.00,22.6,21.9,00.0,31.5,24.3,09.9,0000.0,0002.10,0008.35,0001.66
2022-02-06 09:22:00,,0830.2,5.00,0.00,22.6,21.9,00.0,31.5,24.3,10.0,0000.0,0002.05,0007.71,0001.63
2022-02-06 09:23:00,,0830.2,5.00,0.00,22.6,21.9,00.0,31.5,24.3,10.0,0000.0,0002.02,0007.46,0001.59
2022-02-06 09:24:00,,0830.2,5.00,0.00,22.6,21.9,00.0,31.5,24.3,10.0,0000.0,0002.01,0007.16,0001.56
2022-02-06 09:25:00,,0830.2,5.00,0.00,22.5,21.9,00.0,31.5,24.3,09.9,0000.0,0001.95,0005.64,0001.53
2022-02-06 09:26:00,,0830.2,4.98,0.00,22.5,21.9,00.0,31.5,24.3,10.1,0000.0,0001.89,0004.38,0001.46
2022-02-06 09:27:00,,0830.2,5.01,0.00,22.5,21.8,00.0,31.5,24.3,10.0,0000.0,0001.82,0004.32,0001.41
2022-02-06 09:28:00,,0830.2,4.99,0.00,22.5,21.8,00.0,31.5,24.3,10.1,0000.0,0001.74,0003.38,0001.34
2022-02-06 09:29:00,,0830.2,5.00,0.00,22.5,21.8,00.0,31.5,24.3,10.2,0000.0,0001.64,0003.00,0001.29
2022-02-06 09:30:00,,0830.2,4.99,0.00,22.5,21.8,00.0,31.5,24.2,10.2,0000.0,0001.58,0002.92,0001.24
2022-02-06 09:31:00,,0830.2,5.00,0.00,22.5,21.8,00.0,31.5,24.2,10.1,0000.0,0001.56,0002.94,0001.21
2022-02-06 09:32:00,,0830.2,4.99,0.00,22.5,21.8,00.0,31.5,24.2,10.2,0000.0,0001.55,0002.95,0001.19
2022-02-06 09:33:00,,0830.2,5.00,0.00,22.5,21.8,00.0,31.5,24.3,10.2,0000.0,0001.58,0003.32,0001.17
2022-02-06 09:34:00,,0830.2,5.00,0.00,22.5,21.7,00.0,31.5,24.3,10.2,0000.0,0001.58,0003.42,0001.15
2022-02-06 09:35:00,,0830.2,5.00,0.00,22.5,21.7,00.0,31.5,24.2,10.2,0000.0,0001.51,0003.30,0001.12
2022-02-06 09:36:00,,0830.2,4.99,0.00,22.5,21.7,00.0,31.5,24.2,10.1,0000.0,0001.53,0004.33,0001.10
2022-02-06 09:37:00,,0830.2,4.99,0.00,22.5,21.7,00.0,31.4,24.2,10.0,0000.0,0001.53,0004.58,0001.11
2022-02-06 09:38:00,,0830.2,5.01,0.00,22.5,21.7,00.0,31.4,24.2,10.2,0000.0,0001.50,0004.51,0001.11
2022-02-06 09:39:00,,0830.3,4.99,0.00,22.5,21.7,00.0,31.4,24.2,10.3,0000.0,0001.55,0004.51,0001.14
2022-02-06 09:40:00,,0830.2,5.00,0.00,22.5,21.7,00.0,31.4,24.2,10.4,0000.0,0001.58,0006.05,0001.15
2022-02-06 09:41:00,,0830.2,4.98,0.00,22.5,21.7,00.0,31.4,24.2,10.4,0000.0,0001.60,0007.20,0001.17
2022-02-06 09:42:00,,0830.2,5.00,0.00,22.5,21.7,00.0,31.4,24.2,10.4,0000.0,0001.62,0007.22,0001.18
2022-02-06 09:43:00,,0830.2,4.99,0.00,22.4,21.7,00.0,31.4,24.2,10.5,0000.0,0001.62,0007.22,0001.19
2022-02-06 09:44:00,,0830.2,5.01,0.00,22.4,21.7,00.0,31.4,24.2,10.6,0000.0,0001.59,0006.94,0001.18
2022-02-06 09:45:00,,0830.3,4.99,0.00,22.4,21.7,00.0,31.4,24.2,10.7,0000.0,0001.60,0006.94,0001.19
2022-02-06 09:46:00,,0830.3,5.02,0.00,22.4,21.7,00.0,31.4,24.2,10.6,0000.0,0001.57,0007.66,0001.19
2022-02-06 09:47:00,,0830.3,4.99,0.00,22.4,21.7,00.0,31.4,24.2,10.6,0000.0,0001.52,0007.50,0001.18
2022-02-06 09:48:00,,0830.4,5.00,0.00,22.4,21.7,00.0,31.4,24.2,10.7,0000.0,0001.49,0007.17,0001.16
2022-02-06 09:49:00,,0830.3,5.01,0.00,22.4,21.7,00.0,31.4,24.2,10.7,0000.0,0001.49,0007.21,0001.14
2022-02-06 09:50:00,,0830.4,4.99,0.00,22.4,21.7,00.0,31.4,24.2,10.7,0000.0,0001.47,0007.19,0001.11
2022-02-06 09:51:00,,0830.3,5.00,0.00,22.4,21.7,00.0,31.4,24.2,10.7,0000.0,0001.47,0005.84,0001.09
2022-02-06 09:52:00,,0830.4,5.00,0.00,22.4,21.7,00.0,31.4,24.2,10.4,0000.0,0001.48,0004.62,0001.09
2022-02-06 09:53:00,,0830.4,5.01,0.00,22.4,21.7,00.0,31.4,24.1,10.3,0000.0,0001.50,0004.71,0001.10
2022-02-06 09:54:00,,0830.3,4.99,0.00,22.4,21.7,00.0,31.4,24.1,10.3,0000.0,0001.60,0004.91,0001.14
2022-02-06 09:55:00,,0830.3,5.00,0.00,22.4,21.7,00.0,31.4,24.1,10.4,0000.0,0001.61,0004.82,0001.16
2022-02-06 09:56:00,,0830.3,5.00,0.00,22.4,21.7,00.0,31.4,24.1,10.3,0000.0,0001.59,0004.37,0001.17
2022-02-06 09:57:00,,0830.2,4.99,0.00,22.4,21.9,00.0,31.4,24.2,10.3,0000.0,0001.60,0003.32,0001.18
2022-02-06 09:58:00,,0830.2,4.99,0.00,22.5,22.6,00.0,31.4,24.4,10.3,0000.0,0001.64,0002.62,0001.20
2022-02-06 09:59:00,,0830.3,5.01,0.00,22.6,23.2,00.0,31.4,24.6,10.2,0000.0,0001.65,0002.62,0001.22
